{"data":{"norad_id":59040,"epoch":"2026-09-19T13:51:30.994848Z","epoch_age_seconds":235159,"freshness":"STALE","line1":"1 59040U 24038T   26262.57744207  .00000624  00000+0  32195-4 0  9994","line2":"2 59040  43.0054   8.3136 0000950 254.8487 105.2260 15.27580155144340","mean_motion":15.27580155,"eccentricity":9.5e-5,"inclination_deg":43.0054,"raan_deg":8.3136,"arg_perigee_deg":254.8487,"mean_anomaly_deg":105.226,"bstar":3.2195e-5,"rev_number":14434,"period_min":94.266739148624,"perigee_km":482.3968192789,"apogee_km":483.70044454896,"semimajor_km":6861.1856319139,"source":"CELESTRAK","updated_at":"2026-09-21T09:00:34.031905Z"}}